Regional Weather Roundup
Issued by NWS Wakefield, VA

Home | Current Version | Previous Version | Graphics & Text | Print | Product List | Glossary On
Versions: 1 2 3 4 5 6 7 8 9 10 11 12 13 14 15 16 17 18 19 20 21 22 23 24 25 26 27 28 29 30 31 32 33 34 35 36 37 38 39 40 41 42 43 44 45 46 47 48 49
000
ASUS41 KAKQ 030610
RWRAKQ

REGIONAL WEATHER ROUNDUP
NATIONAL WEATHER SERVICE WAKEFIELD VA
100 AM EST TUE MAR 03 2015

Note: "fair" indicates few or no clouds below 12,000 feet with no
significant weather and/or obstructions to visibility. * = Denotes
station may not report precipitation (e.g., rain,snow,etc.),
thunder or fog.

VAZ042-051-052>054-056-030700-
NORTHERN VIRGINIA

CITY           SKY/WX    TMP DP  RH WIND       PRES   REMARKS
WASH NATIONAL  FAIR      33  15  47 N7        30.43F
DULLES         MOCLDY    28  14  55 N5        30.41F
FORT BELVOIR   FAIR      26  18  71 N2        30.42S
QUANTICO       FAIR      32  16  51 NE12      30.42F WCI  23
FREDERICKSBRG* FAIR      32  18  55 NE3       30.41S
STAFFORD*      FAIR      30  13  49 CALM      30.45S
WARRENTON      FAIR      29  21  73 NE3       30.39F
CULPEPER*      FAIR      30  18  59 CALM      30.40R
MANASSAS*      FAIR      28  19  69 NE6       30.41F
LEESBURG*      FAIR      28  19  69 N6        30.41F
WINCHESTER     FAIR      28  12  50 CALM      30.38F
FRONT ROYAL*   FAIR      28  16  59 CALM      30.38S
LURAY*         FAIR      30  21  69 CALM      30.37S
$$

VAZ048-049-060>072-079>083-030700-
CENTRAL AND SOUTH CENTRAL VIRGINIA

CITY           SKY/WX    TMP DP  RH WIND       PRES   REMARKS
RICHMOND       CLOUDY    32  18  56 NE7       30.40F
CHESTERFIELD*  FAIR      32  12  43 NE3       30.41S
PETERSBURG*    FAIR      30  23  75 CALM      30.41S
HANOVER        FAIR      27  22  81 CALM      30.43R
TAPPAHANNOCK*  FAIR      31  16  54 CALM      30.42S
QUINTON*       FAIR      27  23  83 CALM      30.41S
CHARLOTTSVILLE FAIR      32  14  47 CALM      30.37S
GORDONSVILLE*  FAIR      25  19  78 CALM      30.38S
ORANGE*        FAIR      30  19  64 CALM      30.40R
LOUISA*        FAIR      28  18  64 CALM      30.38R
BUMPASS*       FAIR      28  19  68 CALM      30.40S
FARMVILLE*     FAIR      35  17  49 N5        30.37F
CREWE*         FAIR      34  16  47 CALM      30.38S
FORT PICKETT*  FAIR      34  18  51 NE5       30.38S
CHASE CITY*    CLOUDY    39  32  77 CALM      30.38R
CLARKSVILLE*   CLOUDY    37  32  81 E6        30.38R
SOUTH HILL*    MOCLDY    33  27  79 CALM      30.45R
LAWRENCEVILLE* FAIR      34  24  69 CALM      30.38R
EMPORIA*       FAIR      30  27  86 CALM      30.41R
$$

VAZ088>098-030700-
SOUTHEAST VIRGINIA

CITY           SKY/WX    TMP DP  RH WIND       PRES   REMARKS
NORFOLK        FAIR      34  22  61 N10       30.41R
VIRGINIA BEACH FAIR      32  21  64 N5        30.41R
NORFOLK NAVAL  MOCLDY    37  23  56 N10       30.42F
WEST POINT*    FAIR      30  22  70 CALM      30.43S
SALUDA*        FAIR      29  19  66 CALM      30.41S
NEWPORT NEWS   FAIR      29  24  82 E3        30.42S
LANGLEY AFB    FAIR      34  20  56 NE13      30.40F
FORT EUSTIS    FAIR      29  28  95 CALM      30.39S
WILLIAMSBURG*  FAIR      30  28  93 CALM      30.42S
HR EXEC AP*    FAIR      34  19  55 NE7       30.43R
FRANKLIN*      FAIR      27  25  92 NE3       30.40S
WAKEFIELD      FAIR      29  25  85 CALM      30.41S
$$

VAZ020-022-025-037-045-030700-
WEST CENTRAL AND SOUTHWEST VIRGINIA

CITY           SKY/WX    TMP DP  RH WIND       PRES   REMARKS
STAUNTON*      FAIR      26  17  68 CALM      30.36F
WAYNESBORO*    FAIR      28  17  62 CALM      30.33F
HOT SPRINGS VA FAIR      28  11  49 CALM      30.21F
LYNCHBURG      FAIR      35  17  47 CALM      30.37S
DANVILLE       FAIR      38  26  62 NE9       30.36R
SOUTH BOSTON*  CLOUDY    38  30  72 E3        30.39R
MARTINSVILLE   FAIR      31  23  70 CALM      30.37S
ROANOKE        FAIR      36  16  44 NE5       30.36F
BLACKSBURG     FAIR      30  18  60 SE3       30.32F
DUBLIN*        FAIR      32  21  64 CALM      30.31F
MARION*        FAIR      32  24  72 NE7       30.30F
HILLSVILLE*    FAIR      32  18  55 E5        30.27F
RICHLANDS*     FAIR      32  20  60 CALM      30.21F
WISE*          FAIR      34  21  60 SE8       30.21F
ABINGDON*      FAIR      38  25  59 E12       30.25S
$$

MDZ021>025-VAZ099-100-030700-
SOUTHERN MARYLAND AND THE DELMARVA PENINSULA

CITY           SKY/WX    TMP DP  RH WIND       PRES   REMARKS
PATUXENT RIVER FAIR      32  15  49 N13       30.40F WCI  22
BAY BRIDGE APT   N/A     30  18  59 NW3       30.43S
LEONARDTOWN    FAIR      32  14  47 NW3       30.42R
DOVER          FAIR      29  17  61 W8        30.42R
GEORGETOWN     FAIR      29  16  58 NW3       30.41S
EASTON         FAIR      30  19  63 N3        30.46R
CAMBRIDGE      FAIR      32  18  55 N7        30.41S
SALISBURY      FAIR      31  18  58 N5        30.42R
OCEAN CITY     FAIR      29  17  61 N8        30.41S
WALLOPS ISLAND FAIR      30  17  58 N9        30.41S
ACCOMACK*      FAIR      32  16  51 N9        30.40S
$$

NCZ012>017-030>032-030700-
NORTH CENTRAL AND EASTERN NORTH CAROLINA

CITY           SKY/WX    TMP DP  RH WIND       PRES   REMARKS
ROANOKE RAPIDS FAIR      34  27  75 CALM      30.40R
RALEIGH        CLOUDY    41  35  79 E9        30.35S
ELIZABETH CITY FAIR      36  23  59 NE9       30.40S
AHOSKIE*       FAIR      34  21  59 CALM      30.40R
EDENTON*       FAIR      36  24  61 E3        30.38F
CURRITUCK*     FAIR      36  22  56 NE8       30.40F
KILL DEVIL HLS FAIR      37  29  72 N6        30.37S
MANTEO         FAIR      37  27  65 NE12      30.38F
CAPE HATTERAS  FAIR      39  32  76 NE6       30.37S
TARBORO*       FAIR      34  33  95 CALM      30.41R
GOLDSBORO      CLOUDY    39  39  98 E7        30.36R
WASHINGTON     FAIR      34  31  88 CALM      30.39F
GREENVILLE     FAIR      37  32  81 E3        30.39S
NEW BERN       FAIR      38  31  76 E5        30.39F
WILMINGTON     FAIR      42  33  70 NE9       30.35S
$$

VAZ048-030700-
ELSEWHERE

CITY           SKY/WX    TMP DP  RH WIND       PRES   REMARKS
HARRISBURG PA  FAIR      24  12  60 NW8       30.40R
BALTIMORE      FAIR      24  15  68 W5        30.42S
ANNAPOLIS      FAIR      29  16  58 NW3       30.43S
ANDREWS AFB    FAIR      26  16  64 N8        30.40S
PHILADELPHIA   FAIR      28  15  58 NW3       30.41R
HENDERSON NC   CLOUDY    38  31  76 E6        30.38R
GREENSBORO     MOCLDY    42  17  36 NE6       30.32S
ROCKY MOUNT    FAIR      39  34  82 E5        30.38F
$$

VAZ100-030700-
MARINE

STATION/POSITION TIME  TEMP    WIND        PRES    WAVE   SWELL
                       AIR SEA DIR/SP/G            HT/PER HT/PER
                 (UTC) (F)     (DEG/KT/KT) (MB)    (FT/S) (FT/S)
BRANDYWINE LGT   0600   31 30                N/A
CAPE MAY NJ      0600   31 33                N/A
LEWES DE         0600   31 30                N/A
15NM E FENWICK I 0600   33 35              1029.1R   2/ 4
OCEAN-CITY-INLET 0600   31 33                N/A
WACHAPREAGUE VA  0600   33 35                N/A
THOMAS POINT MD  0600   31 31  320/  9/ 10 1031.6R
COVE POINT MD    0600   31                   N/A
SOLOMONS ISLAND  0600      33                N/A
BISHOPS HEAD MD  0600   29 33                N/A
CAMBRIDGE MD     0600   31 32                N/A
LEWISETTA VA     0600      33                N/A
RAPPAHANNOCK LGT 0500                      1030.1R
STINGRAY PT      0600   34      20/ 10/ 12   N/A
YORK RVR RNG VA  0600   35                   N/A
YORKTOWN VA      0600   31 34                N/A
DOMINION TERM VA 0600   36                   N/A
KIPTOPEKE VA     0600      38                N/A
CHES BAY BRIDGE  0600   35 33                N/A
CAPE HENRY VA    0600   34                   N/A
CHESAPEAKE LGHT  0500   36      10/ 13/ 14 1029.9R
WILLOUBY STN VA  0600   35                   N/A
S CRANEY ISL VA  0500                      1029.5F
CAPE HENRY BUOY  0600      35                N/A     2/ 8
1ST LANDING BUOY 0600   34     360/  8/ 10 1029.2S
OFFSHORE WE BUOY 0600      36                N/A     3/ 4   2/ 7
64NM E OF VA BCH 0600   43 58   10/ 19/ 23 1027.9F   6/ 6
DUCK PIER NC     0600   37 35                N/A
44100 DUCK FRF   0500      37                N/A     3/ 6
44056 DUCK FRF   0600      34                N/A     3/ 5
OREGON INLET NC  0600   38 41                N/A
HATTERAS NC      0600   41 44                N/A
CAPE LOOKOUT NC  0500   46      50/ 22/ 24 1028.2S
$$



USA.gov is the U.S. government's official web portal to all federal, state and local government web resources and services.